Погода в Усть-Кане

Россия / Республика Алтай     50°55′45″N   84°45′44″E
темп.,
°C
ветер,
м/с
пор.,
м/с
влажн.,
%
обл.,
%
осадки,
мм/ч
давл.,
гПа
погр.,
м
27 января, чт
чт2701:00−23ююз229611 0.0 103714
04:00−21ю229595 0.0 103715
07:00−22ююз119496 0.0 103914
10:00−22ю119499 0.0 104017
13:00−14юв117986 0.0 1036331
16:00−13в118291 0.0 1036317
19:00−22ююз219666 0.0 104210
22:00−26юз119721 0.0 10459
28 января, пт
пт2801:00−27ююз119824 0.0 10459
04:00−28ююз119824 0.0 10459
07:00−29ю229824 0.0 104610
10:00−28ю229824 0.0 104515
13:00−17юв22875 0.0 1037153
16:00−14вюв11855 0.0 1034151
19:00−23ююз229911 0.0 10399
22:00−26ю229623 0.0 10419
29 января, сб
сб2901:00−27ю229122 0.0 104110
04:00−27ю229116 0.0 104111
07:00−27ю229264 0.0 104112
10:00−25ююв22915 0.0 104024
13:00−14юв22735 0.0 1033117
16:00−10юв12795 0.0 1030105
19:00−19ю229677 0.0 10369
22:00−20ю2295100 0.0 103811
30 января, вс
вс3001:00−18ююв2291100 0.0 103614
04:00−19ю2291100 0.0 103611
07:00−20ю2292100 0.0 103711
10:00−17ююв2190100 0.0 103630
13:00−10юв2377100 0.0 1030152
16:00−8вюв2278100 0.0 1028148
19:00−10ююв1191100 0.0 102918
22:00−13ююз1187100 0.0 103111
31 января, пн
пн3101:00−12ю1191100 0.0 103015
04:00−14ю119498 0.0 103110
07:00−16ююз119584 0.0 103310
10:00−16ююз119597 0.0 103313
13:00−9вюв1185100 0.0 1029232
16:00−8в1189100 0.0 1028246
19:00−12ююз1197100 0.1 103110
22:00−14юз119696 0.1 103310